User: anonymous   Login
Location: Pella
(41.4080°N, 92.9160°W)
Time: 14:10:04
(UTC-05:00)
Language:

Iridium 91 - Orbit

View from above orbital plane
View from above orbital plane
View from above satellite
View from above satellite

Ground track
Ground track

The orbit data is extracted from the following two-line orbital elements,

1 27372U 02005A   17141.87632878 -.00000014 +00000-0 -12152-4 0  9993
2 27372 086.3934 298.1626 0002427 099.5042 014.3631 14.34213928807802
Epoch (UTC): 21 May 2017 21:01:54
Eccentricity: 0.0002427
inclination: 86.3934°
perigee height: 776 km
apogee height: 779 km
right ascension of ascending node: 298.1626°
argument of perigee: 99.5042°
revolutions per day: 14.34213928
mean anomaly at epoch: 14.3631°
orbit number at epoch: 80780

The dashed part of the orbit path shows where the satellite is in the earth's shadow,  

DLR